BAW9026 LKPR-LOWW

Flight info

Callsign BAW9026
Flight time 0h 44m
Altitude 17000
Route VOZ DCT LANUX LANUX7W
Aircraft A320/M-SDE3FGIJ1KRWXY/SB1

Departure

Time 2026-04-25 19:33
Airport Václav Havel Airport Prague (LKPR)

Arrival

Time 2026-04-25 20:17
Airport Vienna International Airport (LOWW)
Time Latitude Longitude Altitude Speed Heading
2026-04-25 19:09 50.10630 14.26177 1173 ft 0 kts 62°
2026-04-25 19:23 50.10623 14.26158 1170 ft 4 kts 61°
2026-04-25 19:23 50.10610 14.26121 1173 ft 4 kts 62°
2026-04-25 19:24 50.10598 14.26084 1170 ft 4 kts 69°
2026-04-25 19:24 50.10592 14.26047 1170 ft 4 kts 111°
2026-04-25 19:24 50.10592 14.26038 1170 ft 0 kts 213°
2026-04-25 19:27 50.10582 14.26026 1171 ft 5 kts 214°
2026-04-25 19:27 50.10571 14.26015 1171 ft 6 kts 214°
2026-04-25 19:27 50.10474 14.26027 1172 ft 12 kts 137°
2026-04-25 19:27 50.10421 14.26129 1172 ft 13 kts 127°
2026-04-25 19:28 50.10366 14.26248 1172 ft 14 kts 125°
2026-04-25 19:28 50.10301 14.26385 1177 ft 17 kts 128°
2026-04-25 19:28 50.10227 14.26537 1175 ft 18 kts 126°
2026-04-25 19:28 50.10150 14.26702 1176 ft 19 kts 126°
2026-04-25 19:29 50.10076 14.26851 1188 ft 16 kts 127°
2026-04-25 19:29 50.10014 14.26978 1195 ft 14 kts 127°
2026-04-25 19:29 50.09948 14.27114 1199 ft 17 kts 127°
2026-04-25 19:29 50.09870 14.27278 1202 ft 21 kts 127°
2026-04-25 19:30 50.09805 14.27385 1204 ft 21 kts 135°
2026-04-25 19:30 50.09696 14.27552 1206 ft 24 kts 135°
2026-04-25 19:30 50.09578 14.27734 1211 ft 24 kts 135°
2026-04-25 19:30 50.09461 14.27914 1215 ft 24 kts 135°
2026-04-25 19:31 50.09340 14.28102 1215 ft 26 kts 135°
2026-04-25 19:31 50.09220 14.28275 1212 ft 19 kts 152°
2026-04-25 19:31 50.09102 14.28198 1210 ft 21 kts 233°
2026-04-25 19:31 50.09130 14.27988 1210 ft 20 kts 309°
2026-04-25 19:32 50.09137 14.27974 1211 ft 0 kts 309°
2026-04-25 19:32 50.09155 14.27940 1211 ft 24 kts 309°
2026-04-25 19:32 50.09398 14.27438 1210 ft 89 kts 306°
2026-04-25 19:32 50.09692 14.26827 1209 ft 122 kts 307°
2026-04-25 19:33 50.10504 14.25119 1480 ft 156 kts 308°
2026-04-25 19:33 50.11189 14.23800 2201 ft 157 kts 309°
2026-04-25 19:33 50.11888 14.22450 2771 ft 168 kts 306°
2026-04-25 19:33 50.12629 14.20903 3044 ft 190 kts 305°
2026-04-25 19:34 50.13459 14.19131 3355 ft 215 kts 305°
2026-04-25 19:34 50.14379 14.17167 3779 ft 237 kts 305°
2026-04-25 19:34 50.15309 14.14984 4510 ft 246 kts 294°
2026-04-25 19:34 50.15642 14.12367 5394 ft 251 kts 268°
2026-04-25 19:35 50.15126 14.09741 6287 ft 261 kts 242°
2026-04-25 19:35 50.13783 14.07762 7124 ft 277 kts 212°
2026-04-25 19:35 50.11869 14.07116 7970 ft 293 kts 179°
2026-04-25 19:35 50.09912 14.08168 8814 ft 306 kts 149°
2026-04-25 19:36 50.08213 14.10211 9667 ft 311 kts 141°
2026-04-25 19:36 50.06603 14.12502 10350 ft 320 kts 138°
2026-04-25 19:36 50.04961 14.14979 10579 ft 344 kts 137°
2026-04-25 19:36 50.03197 14.17652 10882 ft 362 kts 137°
2026-04-25 19:37 50.01366 14.20379 11462 ft 368 kts 138°
2026-04-25 19:37 49.99480 14.23122 12112 ft 372 kts 139°
2026-04-25 19:37 49.97559 14.25861 12794 ft 376 kts 140°
2026-04-25 19:37 49.95608 14.28611 13443 ft 381 kts 140°
2026-04-25 19:38 49.93630 14.31382 14063 ft 385 kts 140°
2026-04-25 19:38 49.91633 14.34172 14637 ft 388 kts 140°
2026-04-25 19:38 49.89623 14.36986 15222 ft 391 kts 140°
2026-04-25 19:38 49.87598 14.39819 15796 ft 394 kts 140°
2026-04-25 19:39 49.85550 14.42679 16362 ft 398 kts 140°
2026-04-25 19:39 49.83485 14.45559 16842 ft 401 kts 140°
2026-04-25 19:39 49.81403 14.48461 16973 ft 406 kts 140°
2026-04-25 19:39 49.79288 14.51405 16996 ft 419 kts 140°
2026-04-25 19:40 49.77112 14.54434 16998 ft 422 kts 140°
2026-04-25 19:40 49.74925 14.57479 16993 ft 423 kts 140°
2026-04-25 19:40 49.72734 14.60529 16993 ft 423 kts 140°
2026-04-25 19:40 49.70548 14.63566 16987 ft 423 kts 140°
2026-04-25 19:41 49.68357 14.66607 16994 ft 423 kts 140°
2026-04-25 19:41 49.66168 14.69640 16995 ft 423 kts 140°
2026-04-25 19:41 49.63970 14.72678 16994 ft 423 kts 140°
2026-04-25 19:41 49.62519 14.74681 16993 ft 423 kts 140°
2026-04-25 19:42 49.59582 14.78735 16996 ft 424 kts 140°
2026-04-25 19:42 49.57385 14.81761 16998 ft 424 kts 140°
2026-04-25 19:42 49.55186 14.84787 17001 ft 424 kts 140°
2026-04-25 19:42 49.53009 14.87759 17003 ft 424 kts 141°
2026-04-25 19:43 49.50738 14.90645 17000 ft 423 kts 144°
2026-04-25 19:43 49.48402 14.93409 17004 ft 422 kts 146°
2026-04-25 19:43 49.46041 14.96084 17004 ft 422 kts 147°
2026-04-25 19:43 49.43667 14.98736 16988 ft 422 kts 146°
2026-04-25 19:44 49.41293 15.01404 16990 ft 422 kts 146°
2026-04-25 19:44 49.38936 15.04091 16992 ft 421 kts 146°
2026-04-25 19:44 49.36598 15.06792 16993 ft 421 kts 145°
2026-04-25 19:44 49.34260 15.09514 16999 ft 421 kts 145°
2026-04-25 19:45 49.31928 15.12233 16997 ft 421 kts 145°
2026-04-25 19:45 49.29600 15.14944 17000 ft 421 kts 145°
2026-04-25 19:45 49.27265 15.17653 16989 ft 420 kts 145°
2026-04-25 19:45 49.24933 15.20347 16994 ft 420 kts 145°
2026-04-25 19:46 49.22595 15.23037 16998 ft 420 kts 146°
2026-04-25 19:46 49.20254 15.25723 17000 ft 420 kts 146°
2026-04-25 19:46 49.17916 15.28402 16995 ft 420 kts 146°
2026-04-25 19:46 49.15578 15.31081 16979 ft 420 kts 146°
2026-04-25 19:47 49.13238 15.33759 16992 ft 419 kts 146°
2026-04-25 19:47 49.10907 15.36428 16986 ft 419 kts 146°
2026-04-25 19:47 49.08570 15.39101 16990 ft 419 kts 146°
2026-04-25 19:47 49.06241 15.41765 16984 ft 419 kts 146°
2026-04-25 19:48 49.03911 15.44428 16985 ft 419 kts 146°
2026-04-25 19:48 49.01605 15.47060 16985 ft 419 kts 146°
2026-04-25 19:48 48.99316 15.49807 16975 ft 420 kts 139°
2026-04-25 19:48 48.97206 15.52839 16769 ft 412 kts 138°
2026-04-25 19:49 48.95153 15.55846 16512 ft 408 kts 138°
2026-04-25 19:49 48.93804 15.57837 16347 ft 407 kts 138°
2026-04-25 19:49 48.91095 15.61844 16003 ft 405 kts 138°
2026-04-25 19:50 48.85339 15.70300 15271 ft 399 kts 138°
2026-04-25 19:50 48.83342 15.73212 15023 ft 397 kts 138°
2026-04-25 19:50 48.81351 15.76112 14782 ft 395 kts 138°
2026-04-25 19:51 48.79364 15.78994 14538 ft 394 kts 138°
2026-04-25 19:51 48.77390 15.81855 14302 ft 392 kts 138°
2026-04-25 19:51 48.75428 15.84702 14062 ft 385 kts 138°
2026-04-25 19:51 48.73549 15.87433 13820 ft 370 kts 138°
2026-04-25 19:52 48.71746 15.90056 13562 ft 349 kts 138°
2026-04-25 19:52 48.70041 15.92537 13294 ft 331 kts 138°
2026-04-25 19:52 48.68420 15.94892 13019 ft 316 kts 138°
2026-04-25 19:52 48.66868 15.97141 12761 ft 302 kts 139°
2026-04-25 19:53 48.65366 15.99310 12518 ft 297 kts 139°
2026-04-25 19:53 48.63879 16.01448 12252 ft 294 kts 139°
2026-04-25 19:53 48.62402 16.03572 12029 ft 290 kts 139°
2026-04-25 19:53 48.60955 16.05651 11955 ft 283 kts 139°
2026-04-25 19:54 48.59520 16.07710 11967 ft 284 kts 139°
2026-04-25 19:54 48.58088 16.09763 11967 ft 280 kts 139°
2026-04-25 19:54 48.56703 16.11750 11967 ft 271 kts 139°
2026-04-25 19:54 48.55801 16.13044 11971 ft 270 kts 139°
2026-04-25 19:55 48.53984 16.15656 11969 ft 270 kts 139°
2026-04-25 19:55 48.52625 16.17608 11969 ft 270 kts 139°
2026-04-25 19:55 48.51267 16.19553 11968 ft 270 kts 139°
2026-04-25 19:55 48.49906 16.21501 11968 ft 270 kts 139°
2026-04-25 19:56 48.48546 16.23443 11968 ft 270 kts 139°
2026-04-25 19:56 48.47176 16.25398 11724 ft 272 kts 139°
2026-04-25 19:56 48.45778 16.27390 11473 ft 280 kts 139°
2026-04-25 19:56 48.44381 16.29383 11230 ft 281 kts 138°
2026-04-25 19:57 48.42965 16.31405 10982 ft 280 kts 138°
2026-04-25 19:57 48.41556 16.33416 10738 ft 279 kts 138°
2026-04-25 19:57 48.40146 16.35423 10493 ft 278 kts 138°
2026-04-25 19:57 48.38742 16.37423 10252 ft 277 kts 138°
2026-04-25 19:58 48.37344 16.39412 10015 ft 276 kts 138°
2026-04-25 19:58 48.35954 16.41388 9857 ft 274 kts 138°
2026-04-25 19:58 48.34563 16.43359 9728 ft 275 kts 138°
2026-04-25 19:58 48.33168 16.45333 9495 ft 275 kts 138°
2026-04-25 19:59 48.31784 16.47293 9226 ft 273 kts 138°
2026-04-25 19:59 48.30451 16.49316 8986 ft 272 kts 131°
2026-04-25 19:59 48.29241 16.51486 8718 ft 270 kts 130°
2026-04-25 19:59 48.28063 16.53668 8465 ft 268 kts 129°
2026-04-25 20:00 48.26902 16.55847 8208 ft 266 kts 129°
2026-04-25 20:00 48.26137 16.57283 8040 ft 266 kts 129°
2026-04-25 20:00 48.24599 16.60163 7701 ft 260 kts 129°
2026-04-25 20:00 48.23488 16.62236 7448 ft 251 kts 129°
2026-04-25 20:01 48.21306 16.66282 6960 ft 248 kts 129°
2026-04-25 20:01 48.20225 16.68283 6726 ft 246 kts 129°
2026-04-25 20:01 48.19163 16.70249 6488 ft 245 kts 129°
2026-04-25 20:02 48.18092 16.72229 6241 ft 244 kts 129°
2026-04-25 20:02 48.17023 16.74202 6047 ft 243 kts 129°
2026-04-25 20:02 48.15955 16.76172 5798 ft 243 kts 129°
2026-04-25 20:02 48.14893 16.78127 5540 ft 241 kts 129°
2026-04-25 20:03 48.13837 16.80070 5283 ft 240 kts 129°
2026-04-25 20:03 48.12787 16.82001 5037 ft 239 kts 129°
2026-04-25 20:03 48.11737 16.83936 4799 ft 239 kts 128°
2026-04-25 20:03 48.10804 16.85994 4542 ft 238 kts 119°
2026-04-25 20:04 48.10054 16.88188 4279 ft 237 kts 115°
2026-04-25 20:04 48.09322 16.90395 4068 ft 235 kts 116°
2026-04-25 20:04 48.08592 16.92588 3995 ft 236 kts 116°
2026-04-25 20:04 48.07857 16.94790 3999 ft 237 kts 115°
2026-04-25 20:05 48.07120 16.96997 4001 ft 238 kts 115°
2026-04-25 20:05 48.06381 16.99208 4002 ft 237 kts 116°
2026-04-25 20:05 48.05649 17.01396 4003 ft 235 kts 116°
2026-04-25 20:05 48.04916 17.03587 4002 ft 236 kts 116°
2026-04-25 20:06 48.04176 17.05790 4002 ft 238 kts 116°
2026-04-25 20:06 48.03444 17.07973 4002 ft 238 kts 116°
2026-04-25 20:06 48.02709 17.10174 4003 ft 236 kts 116°
2026-04-25 20:06 48.01975 17.12370 4003 ft 236 kts 116°
2026-04-25 20:07 48.01093 17.14416 3994 ft 236 kts 135°
2026-04-25 20:07 47.99771 17.15864 4001 ft 237 kts 158°
2026-04-25 20:07 47.98203 17.16489 4001 ft 232 kts 181°
2026-04-25 20:07 47.96622 17.16228 4000 ft 227 kts 202°
2026-04-25 20:08 47.95211 17.15241 4004 ft 222 kts 218°
2026-04-25 20:08 47.94129 17.13680 4002 ft 215 kts 242°
2026-04-25 20:08 47.93599 17.11648 4002 ft 210 kts 266°
2026-04-25 20:08 47.93691 17.09510 4002 ft 207 kts 289°
2026-04-25 20:09 47.94306 17.07584 4002 ft 205 kts 301°
2026-04-25 20:09 47.94994 17.05758 4002 ft 205 kts 298°
2026-04-25 20:09 47.95650 17.03862 4002 ft 205 kts 297°
2026-04-25 20:09 47.96286 17.01962 4002 ft 205 kts 297°
2026-04-25 20:10 47.96716 17.00667 4000 ft 206 kts 297°
2026-04-25 20:10 47.97548 16.98159 4000 ft 200 kts 297°
2026-04-25 20:10 47.98164 16.96302 4001 ft 199 kts 296°
2026-04-25 20:10 47.98776 16.94453 4002 ft 199 kts 296°
2026-04-25 20:11 47.99388 16.92605 4004 ft 199 kts 297°
2026-04-25 20:11 48.00001 16.90753 4003 ft 199 kts 297°
2026-04-25 20:11 48.00612 16.88905 4003 ft 198 kts 297°
2026-04-25 20:11 48.01220 16.87063 4002 ft 194 kts 297°
2026-04-25 20:12 48.01803 16.85296 4001 ft 188 kts 297°
2026-04-25 20:12 48.02377 16.83556 4001 ft 186 kts 297°
2026-04-25 20:12 48.02948 16.81825 3970 ft 185 kts 297°
2026-04-25 20:12 48.03130 16.81272 3936 ft 182 kts 296°
2026-04-25 20:13 48.04050 16.78478 3595 ft 177 kts 296°
2026-04-25 20:13 48.04585 16.76850 3378 ft 177 kts 296°
2026-04-25 20:13 48.05125 16.75208 3153 ft 175 kts 296°
2026-04-25 20:13 48.05662 16.73575 2913 ft 174 kts 296°
2026-04-25 20:14 48.06194 16.71954 2699 ft 172 kts 297°
2026-04-25 20:14 48.06717 16.70362 2469 ft 170 kts 297°
2026-04-25 20:14 48.07222 16.68820 2255 ft 157 kts 297°
2026-04-25 20:14 48.07670 16.67453 2068 ft 140 kts 297°
2026-04-25 20:15 48.08090 16.66170 1870 ft 135 kts 297°
2026-04-25 20:15 48.08500 16.64919 1701 ft 133 kts 297°
2026-04-25 20:15 48.08906 16.63679 1505 ft 131 kts 297°
2026-04-25 20:15 48.09313 16.62433 1355 ft 135 kts 295°
2026-04-25 20:16 48.09722 16.61183 1174 ft 133 kts 295°
2026-04-25 20:16 48.10124 16.59952 1005 ft 131 kts 295°
2026-04-25 20:16 48.10525 16.58736 822 ft 130 kts 295°
2026-04-25 20:16 48.10917 16.57516 654 ft 130 kts 295°
2026-04-25 20:17 48.11261 16.56468 614 ft 79 kts 296°
2026-04-25 20:17 48.11436 16.55934 619 ft 52 kts 296°
2026-04-25 20:17 48.11574 16.55517 618 ft 36 kts 300°
2026-04-25 20:17 48.11728 16.55250 622 ft 27 kts 316°
2026-04-25 20:18 48.11797 16.55156 614 ft 5 kts 329°
2026-04-25 20:18 48.11807 16.55150 609 ft 0 kts 339°
2026-04-25 20:19 48.11808 16.55150 609 ft 1 kts 339°
2026-04-25 20:19 48.11838 16.55142 618 ft 7 kts 356°
2026-04-25 20:20 48.11896 16.55163 615 ft 10 kts 24°
2026-04-25 20:20 48.11966 16.55186 623 ft 12 kts 353°
2026-04-25 20:20 48.12040 16.55208 617 ft 10 kts 28°
2026-04-25 20:20 48.12080 16.55198 620 ft 7 kts 305°
2026-04-25 20:21 48.12094 16.55157 620 ft 0 kts 297°